Location: Baggettsville
(36.4767°N, 86.7303°W)
Time: 08:49:21
(UTC+00:00)

Cosmos 1656 - Pass Details

Date: 29 October 2020
Orbit: 797 x 851 km, 71.1° (Epoch: 05 December)

Event Time Altitude Azimuth Distance (km) Brightness Sun altitude
Rises 23:15:57 0° 196° (SSW) 3,321 7.2 -5.3°
Reaches altitude 10° 23:18:21 10° 196° (SSW) 2,401 6.5 -5.8°
Maximum altitude 23:23:51 80° 110° (ESE) 844 3.7 -6.9°
Drops below altitude 10° 23:29:28 10° 24° (NNE) 2,453 5.8 -8.0°
Sets 23:31:56 0° 23° (NNE) 3,398 6.5 -8.4°
